Regional Weather Roundup
Issued by NWS Burlington, VT

Home | Current Version | Previous Version | Text Only | Print | Product List | Glossary On
Versions: 1 2 3 4 5 6 7 8 9 10 11 12 13 14 15 16 17 18 19 20 21 22 23 24 25 26 27 28 29 30 31 32 33 34 35 36 37 38 39 40 41 42 43 44 45 46 47 48 49 50
391
ASUS41 KBTV 081310
RWRBTV
VERMONT REGIONAL WEATHER ROUNDUP
NATIONAL WEATHER SERVICE BURLINGTON VT
800 AM EST MON FEB 08 2016

NOTE: "FAIR" INDICATES FEW OR NO CLOUDS BELOW 12,000 FEET WITH NO
SIGNIFICANT WEATHER AND/OR OBSTRUCTIONS TO VISIBILITY.

* THESE REPORTS ARE NOT UNDER NWS QUALITY CONTROL AND/OR DO NOT
  REPORT WEATHER SUCH AS PRECIPITATION AND FOG.

VTZ001>019-081400-
_____VERMONT_____


CITY           SKY/WX    TMP DP  RH WIND       PRES   REMARKS
BURLINGTON     MOCLDY    19  12  74 N5        29.94R WCI  12
MONTPELIER     FAIR      21  14  74 NE8       29.93R WCI  11
MORRISVILLE    FAIR      20  11  68 N9        29.94S WCI   9
ST. JOHNSBURY*   N/A     21   2  43 MISG      29.94R
LYNDONVILLE*   FAIR      19  -8  30 NE9G18    29.92S WCI   8
RUTLAND*       FAIR      27  10  50 SE10G18   29.88R WCI  17
SPRINGFIELD    FAIR      23  -3  32 E10G20    29.94R WCI  12
HIGHGATE*      FAIR      18  11  75 CALM      29.95R
NEWPORT*       FAIR      13   5  71 N7        29.95S WCI   2
BENNINGTON     FAIR      29  10  45 VRB6      29.84R WCI  23
SUTTON*          N/A     18 N/A N/A MISG        N/A

_____LAKE CHAMPLAIN_____


CITY           SKY/WX    TMP DP  RH WIND       PRES   REMARKS

$$

NYZ007-026>031-035-052-083-081400-
_____NORTHERN NEW YORK_____


CITY           SKY/WX    TMP DP  RH WIND       PRES   REMARKS
PLATTSBURGH    CLOUDY    18   8  65 N10       29.95S WCI   6
SARANAC LAKE   CLOUDY    14  12  92 N3        29.80S
MASSENA        CLOUDY    17   6  62 E15       29.96S WCI   2
OGDENSBURG*    CLEAR     18  10  73 E9        29.91S WCI   6
POTSDAM*       MOCLDY    16   9  73 E8        29.91F WCI   5
WATERTOWN      CLOUDY    20  14  77 NE9       29.85R WCI   9
ALBANY         CLOUDY    27  19  72 N6        29.87S WCI  20
GLENS FALLS    PTCLDY    24  16  71 NE9       29.89R WCI  14

$$
NHZ002-005-011-081400-
_____NEW HAMPSHIRE_____


CITY           SKY/WX    TMP DP  RH WIND       PRES   REMARKS
LEBANON        CLOUDY    25   6  44 NE8       29.92R WCI  16
MT WASHINGTON  MOCLDY    10   0  61 E29         N/A  WCI -11
PLYMOUTH       FAIR      23 -12  21 E6        29.95F WCI  15
WHITEFIELD     CLOUDY    19 -11  26 E17G23    29.92S WCI   4

$$

_____REGIONAL QUEBEC LOCATIONS_____


CITY           SKY/WX    TMP DP  RH WIND       PRES   REMARKS
MONTREAL       MOCLDY    16   0  48 NE24G32   30.01S WCI  -3
QUEBEC CITY    FLURRIES  10   5  79 NE20G30   30.16F WCI  -8
SHERBROOKE     CLEAR     10  -6  48 NE12G17   29.98F WCI  -4

_____REGIONAL ONTARIO LOCATIONS_____


CITY           SKY/WX    TMP DP  RH WIND       PRES   REMARKS
OTTAWA         CLOUDY    18   3  53 E21       29.94R WCI   1

______KEY______
VSB  - VISIBILITY IN MILES
WCI  - WIND CHILL INDEX
HX   - HEAT INDEX
$$
NNNN




USA.gov is the U.S. government's official web portal to all federal, state and local government web resources and services.